Terug naar catalogus

CZ-6A DEB

ActiefSSO
NORAD 54455·DEBRIS·🇨🇳 China

Gelanceerd Nov 11, 2022 vanaf Taiyuan Satellite Launch Center

Loading…

Volgende Passages (komende 24 uur)

TLE

VersSource: Space-Track

Epoch: Sep 14, 2026, 03:59 UTC

1 54455U 22151GF  26257.16600810  .00000627  00000-0  51240-3 0  9998
2 54455  99.0526 223.6555 0172834 247.3422 110.9379 13.86700580193688

Volg CZ-6A DEB in realtime met AllMySat

Download on the App Store